Location: *
(49.9853°N, 3.5569°E)
Time: 14:00:26
(UTC+00:00)

Cosmos 1674 - Pass Details

Date: 22 September 2019
Orbit: 495 x 520 km, 82.5° (Epoch: 15 October)

Event Time Altitude Azimuth Distance (km) Brightness Sun altitude
Rises 20:16:30 0° 341° (NNW) 2,596 7.0 -24.0°
Reaches altitude 10° 20:18:48 10° 330° (NNW) 1,706 6.2 -24.3°
Maximum altitude 20:22:03 29° 269° (W) 939 4.5 -24.7°
Enters shadow 20:23:17 23° 235° (SW) 1,081 4.5 -24.9°
